Weather Roundup
Issued by NWS Chicago, IL

Home | Current Version | Previous Version | Text Only | Print | Product List | Glossary On
Versions: 1 2 3 4 5 6 7 8 9 10 11 12 13 14 15 16 17 18 19 20 21 22 23 24 25 26 27 28 29 30 31 32 33 34 35 36 37 38 39 40 41 42 43 44 45 46 47 48 49 50
000
NZUS59 KLOT 290121
HRRLOT

CHICAGO AREA WEATHER ROUNDUP
NATIONAL WEATHER SERVICE CHICAGO/ROMEOVILLE IL
800 PM CDT FRI AUG 28 2015

NOTE: "FAIR" INDICATES FEW OR NO CLOUDS BELOW 12,000 FEET WITH NO
SIGNIFICANT WEATHER AND/OR OBSTRUCTIONS TO VISIBILITY.

* THESE STATIONS ARE NOT UNDER NWS QUALITY CONTROL. THEY ALSO MAY NOT
  REPORT WEATHER SUCH AS PRECIPITATION OR FOG.

ILZ005-006-012>014-019>023-290200-
NORTHEAST ILLINOIS

CITY           SKY/WX    TMP DP  RH WIND       PRES   REMARKS
OHARE          CLOUDY    71  60  68 E6        30.06S
MIDWAY         CLOUDY    74  61  63 E9        30.06S
AURORA         CLOUDY    67  64  90 E5        30.06S
LANSING*       CLOUDY    69  62  79 E6        30.08S
JOLIET*        CLOUDY    71  64  78 E5        30.06S
WAUKEGAN       CLOUDY    63  60  90 CALM      30.07F
DUPAGE AIRPORT CLOUDY    69  61  75 E3        30.06S
WHEELING       CLOUDY    69  60  73 CALM      30.08S
KANKAKEE*      CLOUDY    69  64  83 CALM      30.07S
MORRIS*        CLOUDY    68  64  85 E5        30.04S
LEWIS AIRPORT* CLOUDY    69  61  76 CALM      30.07R
NORTHERLY IS     N/A     67  62  84 CALM        N/A
$$

WIZ051-052-058>065-066-070>072-290200-
SOUTHEAST WISCONSIN

CITY           SKY/WX    TMP DP  RH WIND       PRES   REMARKS
MILWAUKEE      LGT RAIN  66  63  90 S5        30.09S FOG
KENOSHA*       CLOUDY    65  62  90 NE6       30.09S
RACINE*        CLOUDY    64  61  90 E3        30.10S FOG
BURLINGTON     CLOUDY    62  62  98 NE3       30.08S
WAUKESHA       CLEAR     64  63  94 CALM      30.11S
WEST BEND      LGT RAIN  63  61  94 CALM      30.11R
$$

INZ001>003-010>013-019-020-290200-
NORTHWEST INDIANA

CITY           SKY/WX    TMP DP  RH WIND       PRES   REMARKS
GARY*          CLOUDY    68  64  88 CALM      30.08R
MICHIGAN CITY* NOT AVBL
RENSSELAER*    NOT AVBL
VALPARAISO     CLOUDY    70  62  76 E3        30.08S
$$

LMZ740>746-290200-
SOUTHERN LAKE MICHIGAN

STATION/POSITION TIME  SKY/WX   TEMP WIND        PRES    VSBY
                                AIR  DIR/SP/G
                 (UTC)          (F)  (DEG/KT/KT) (MB)    (MI)
HARRISON CRIB    0000            70   80/  6/  6   N/A
BURNHAM HARBOR   0100            66  280/  2/  2   N/A
CALUMET HARBOR   NOT AVBL
BURNS HARBOR     0000            71   90/  2/  7 1018.6S
MICHIGAN CITY    0000            72   70/  4/  5   N/A
$$

ABBREVIATIONS USED IN REMARKS
   TC - TEMPERATURE IN CELSIUS
  WCI - WIND CHILL INDEX
   HX - HEAT INDEX
  VSB - VISIBILITY
$$



USA.gov is the U.S. government's official web portal to all federal, state and local government web resources and services.